User: anonymous   Login
Location: Unspecified
(0.0000°N, 0.0000°E)
Time: 15:04:13
(UTC+00:00)
Language:

UWE-4 - Orbit

View from above orbital plane
View from above orbital plane
View from above satellite
View from above satellite

Ground track
Ground track

The orbit data is extracted from the following two-line orbital elements,

1 43880U 18111E   19293.88402056  .00000628  00000-0  60644-4 0  9992
2 43880  97.7098 200.1825 0011670 336.4333  23.6352 14.96298430 42512
Epoch (UTC): 20 October 2019 21:12:59
Eccentricity: 0.0011670
inclination: 97.7098°
perigee height: 570 km
apogee height: 586 km
right ascension of ascending node: 200.1825°
argument of perigee: 336.4333°
revolutions per day: 14.96298430
mean anomaly at epoch: 23.6352°
orbit number at epoch: 4251

The dashed part of the orbit path shows where the satellite is in the earth's shadow,  

DLR